Track DMSP 5D-3 F19 (USA 249) now! 10-day predictions DMSP 5D-3 F19 (USA 249) is classified as:
1 39630U 14015A 24325.90966812 .00000335 00000-0 19674-3 0 9990 2 39630 98.7639 324.5305 0011278 47.6812 312.5315 14.14634041548931